CBJ8185 ZBTJ-ZSHC

Flight info

Callsign CBJ8185
Flight time N/A
Altitude 35100
Route ELKUR8W ELKUR W40 YQG/K0856S1100 W142 DALIM/K0854S1070 A593 DPX A470 OF W95 SAPIN A470 IGRAT IGR91A
Aircraft A320/M-SDE3FGHIRWY/LB1

Departure

Time N/A
Airport Tianjin Binhai International Airport (ZBTJ)

Arrival

Time 2026-04-29 12:50
Airport Hangzhou Xiaoshan International Airport (ZSHC)
Time Latitude Longitude Altitude Speed Heading
2026-04-29 12:33 30.75209 119.77485 14798 ft 397 kts 147°
2026-04-29 12:33 30.70908 119.81215 13805 ft 394 kts 146°
2026-04-29 12:34 30.66701 119.85052 12807 ft 389 kts 145°
2026-04-29 12:34 30.62265 119.88604 11775 ft 382 kts 152°
2026-04-29 12:34 30.57668 119.91540 10786 ft 375 kts 154°
2026-04-29 12:34 30.53483 119.94181 10354 ft 353 kts 152°
2026-04-29 12:35 30.51382 119.95513 10211 ft 341 kts 152°
2026-04-29 12:35 30.49336 119.96815 10052 ft 329 kts 152°
2026-04-29 12:35 30.47351 119.98073 9877 ft 319 kts 153°
2026-04-29 12:35 30.45424 119.99294 9470 ft 312 kts 153°
2026-04-29 12:36 30.43549 120.00479 8981 ft 305 kts 152°
2026-04-29 12:36 30.41718 120.01632 8600 ft 295 kts 151°
2026-04-29 12:36 30.39906 120.02778 8221 ft 292 kts 150°
2026-04-29 12:36 30.38146 120.03893 7974 ft 287 kts 152°
2026-04-29 12:37 30.36378 120.05016 7909 ft 289 kts 151°
2026-04-29 12:37 30.34619 120.06130 7881 ft 288 kts 151°
2026-04-29 12:37 30.32856 120.07246 7869 ft 289 kts 151°
2026-04-29 12:37 30.31094 120.08360 7865 ft 288 kts 151°
2026-04-29 12:38 30.29331 120.09475 7858 ft 288 kts 151°
2026-04-29 12:38 30.27602 120.10568 7742 ft 281 kts 151°
2026-04-29 12:38 30.25894 120.11646 7484 ft 276 kts 151°
2026-04-29 12:38 30.24211 120.12704 7183 ft 273 kts 150°
2026-04-29 12:39 30.22519 120.13631 6909 ft 266 kts 166°
2026-04-29 12:39 30.20732 120.13560 6881 ft 251 kts 201°
2026-04-29 12:39 30.19298 120.12485 6687 ft 245 kts 232°
2026-04-29 12:39 30.18436 120.10858 6450 ft 237 kts 246°
2026-04-29 12:40 30.17726 120.09153 6234 ft 231 kts 246°
2026-04-29 12:40 30.16999 120.07543 6130 ft 219 kts 237°
2026-04-29 12:40 30.15817 120.06506 5918 ft 213 kts 198°
2026-04-29 12:40 30.14366 120.06434 5581 ft 209 kts 163°
2026-04-29 12:41 30.13073 120.07098 5264 ft 204 kts 148°
2026-04-29 12:41 30.11834 120.07882 4951 ft 202 kts 147°
2026-04-29 12:41 30.10602 120.08662 4649 ft 199 kts 148°
2026-04-29 12:41 30.09485 120.09548 4316 ft 193 kts 125°
2026-04-29 12:42 30.09031 120.10912 4002 ft 178 kts 86°
2026-04-29 12:42 30.09224 120.12277 3726 ft 170 kts 69°
2026-04-29 12:42 30.09655 120.13500 3431 ft 158 kts 61°
2026-04-29 12:42 30.10148 120.14596 3170 ft 149 kts 59°
2026-04-29 12:43 30.10618 120.15610 2980 ft 140 kts 59°
2026-04-29 12:43 30.11077 120.16612 2977 ft 142 kts 59°
2026-04-29 12:43 30.11540 120.17633 2978 ft 141 kts 60°
2026-04-29 12:43 30.11989 120.18632 2971 ft 140 kts 60°
2026-04-29 12:44 30.12438 120.19636 2962 ft 140 kts 60°
2026-04-29 12:44 30.12882 120.20640 2961 ft 140 kts 60°
2026-04-29 12:44 30.13325 120.21645 2968 ft 140 kts 60°
2026-04-29 12:44 30.13766 120.22649 2963 ft 140 kts 59°
2026-04-29 12:45 30.14207 120.23654 2959 ft 140 kts 60°
2026-04-29 12:45 30.14648 120.24659 2956 ft 140 kts 60°
2026-04-29 12:45 30.15084 120.25651 2959 ft 140 kts 60°
2026-04-29 12:45 30.15525 120.26656 2920 ft 140 kts 60°
2026-04-29 12:46 30.15971 120.27667 2732 ft 140 kts 60°
2026-04-29 12:46 30.16412 120.28667 2547 ft 139 kts 60°
2026-04-29 12:46 30.16848 120.29657 2359 ft 139 kts 60°
2026-04-29 12:46 30.17290 120.30657 2176 ft 138 kts 60°
2026-04-29 12:47 30.17726 120.31642 1991 ft 138 kts 60°
2026-04-29 12:47 30.18157 120.32619 1807 ft 137 kts 60°
2026-04-29 12:47 30.18592 120.33602 1619 ft 137 kts 60°
2026-04-29 12:47 30.19030 120.34590 1434 ft 137 kts 61°
2026-04-29 12:48 30.19465 120.35574 1244 ft 136 kts 62°
2026-04-29 12:48 30.19898 120.36549 1064 ft 136 kts 62°
2026-04-29 12:48 30.20323 120.37511 877 ft 136 kts 61°
2026-04-29 12:48 30.20755 120.38486 693 ft 135 kts 61°
2026-04-29 12:49 30.21185 120.39457 512 ft 135 kts 62°
2026-04-29 12:49 30.21615 120.40414 322 ft 134 kts 60°
2026-04-29 12:49 30.22041 120.41367 105 ft 132 kts 63°
2026-04-29 12:49 30.22444 120.42303 41 ft 127 kts 62°
2026-04-29 12:50 30.22716 120.42912 38 ft 49 kts 63°
2026-04-29 12:50 30.22860 120.43244 38 ft 42 kts 56°
2026-04-29 12:50 30.22990 120.43523 39 ft 37 kts 62°
2026-04-29 12:50 30.23138 120.43710 39 ft 17 kts 36°